Location: Unspecified
(0.0000°N, 0.0000°E)
Time: 17:20:46
(UTC+00:00)

ISS - Pass Details

Date: 18 January 2020
Orbit: 415 x 422 km, 51.6° (Epoch: 23 January)

Event Time Altitude Azimuth Distance (km) Brightness Sun altitude
Exits shadow 05:33:56 11° 302° (WNW) 1,425 -1.7 -8.5°
Maximum altitude 05:36:52 36° 235° (SW) 679 -3.0 -7.8°
Drops below altitude 10° 05:39:58 10° 166° (SSE) 1,485 -0.5 -7.1°
Sets 05:42:09 0° 157° (SSE) 2,351 0.8 -6.6°
